| time (UTC) | temp F | wind direction | speed MPH | gust MPH | rain 1hr in | rain 24hr in | rain mn in | humidity % | barometer mb |
| 20260503230007 | 73 | 20 | 3.0 | 5.0 | 0.00 | 0.00 | 0.00 | 32 | 1016.5 |
| 20260503225901 | 73 | 353 | 2.0 | 5.0 | 0.00 | 0.00 | 0.00 | 33 | 1016.6 |
| 20260503225802 | 73 | 360 | 3.0 | 5.0 | 0.00 | 0.00 | 0.00 | 33 | 1016.6 |
| 20260503225701 | 73 | 342 | 2.0 | 7.0 | 0.00 | 0.00 | 0.00 | 34 | 1016.6 |
| 20260503225601 | 73 | 17 | 4.0 | 7.0 | 0.00 | 0.00 | 0.00 | 34 | 1016.6 |
| 20260503225504 | 73 | 360 | 3.0 | 7.0 | 0.00 | 0.00 | 0.00 | 33 | 1016.7 |
| 20260503225402 | 73 | 20 | 3.0 | 7.0 | 0.00 | 0.00 | 0.00 | 33 | 1016.7 |
| 20260503225301 | 73 | 283 | 0.0 | 7.0 | 0.00 | 0.00 | 0.00 | 33 | 1016.7 |
| 20260503225201 | 73 | 310 | 3.0 | 7.0 | 0.00 | 0.00 | 0.00 | 33 | 1016.7 |
| 20260503225102 | 73 | 307 | 3.0 | 7.0 | 0.00 | 0.00 | 0.00 | 34 | 1016.7 |
| 20260503225005 | 73 | 309 | 1.0 | 7.0 | 0.00 | 0.00 | 0.00 | 32 | 1016.7 |
| 20260503224901 | 73 | 317 | 2.0 | 7.0 | 0.00 | 0.00 | 0.00 | 32 | 1016.7 |
| 20260503224802 | 73 | 5 | 5.0 | 7.0 | 0.00 | 0.00 | 0.00 | 32 | 1016.7 |
| 20260503224701 | 73 | 345 | 4.0 | 4.0 | 0.00 | 0.00 | 0.00 | 34 | 1016.7 |
| 20260503224602 | 73 | 360 | 0.0 | 4.0 | 0.00 | 0.00 | 0.00 | 33 | 1016.7 |
| 20260503224505 | 73 | 18 | 4.0 | 4.0 | 0.00 | 0.00 | 0.00 | 32 | 1016.7 |
| 20260503224401 | 73 | 303 | 0.0 | 5.0 | 0.00 | 0.00 | 0.00 | 32 | 1016.7 |
| 20260503224301 | 73 | 316 | 3.0 | 5.0 | 0.00 | 0.00 | 0.00 | 32 | 1016.8 |
| 20260503224201 | 73 | 323 | 3.0 | 5.0 | 0.00 | 0.00 | 0.00 | 32 | 1016.6 |
| 20260503224102 | 73 | 323 | 2.0 | 5.0 | 0.00 | 0.00 | 0.00 | 31 | 1016.6 |
| 20260503224006 | 73 | 314 | 0.0 | 5.0 | 0.00 | 0.00 | 0.00 | 31 | 1016.6 |
| 20260503223901 | 73 | 326 | 3.0 | 5.0 | 0.00 | 0.00 | 0.00 | 31 | 1016.7 |
| 20260503223802 | 73 | 330 | 4.0 | 5.0 | 0.00 | 0.00 | 0.00 | 32 | 1016.7 |
| 20260503223701 | 73 | 309 | 2.0 | 5.0 | 0.00 | 0.00 | 0.00 | 31 | 1016.7 |
| 20260503223601 | 73 | 312 | 2.0 | 5.0 | 0.00 | 0.00 | 0.00 | 32 | 1016.7 |
| 20260503223505 | 73 | 309 | 3.0 | 5.0 | 0.00 | 0.00 | 0.00 | 32 | 1016.7 |
| 20260503223401 | 74 | 328 | 4.0 | 5.0 | 0.00 | 0.00 | 0.00 | 31 | 1016.8 |
| 20260503223301 | 74 | 333 | 1.0 | 5.0 | 0.00 | 0.00 | 0.00 | 32 | 1016.7 |
| 20260503223006 | 73 | 274 | 3.0 | 7.0 | 0.00 | 0.00 | 0.00 | 32 | 1016.8 |
| 20260503222800 | 73 | 329 | 2.0 | 7.0 | 0.00 | 0.00 | 0.00 | 32 | 1016.7 |
| 20260503222702 | 73 | 349 | 3.0 | 7.0 | 0.00 | 0.00 | 0.00 | 32 | 1016.7 |
| 20260503222505 | 73 | 337 | 3.0 | 7.0 | 0.00 | 0.00 | 0.00 | 31 | 1016.7 |
| 20260503222401 | 73 | 296 | 3.0 | 7.0 | 0.00 | 0.00 | 0.00 | 31 | 1016.7 |
| 20260503222301 | 74 | 345 | 2.0 | 7.0 | 0.00 | 0.00 | 0.00 | 30 | 1016.7 |
| 20260503222200 | 74 | 324 | 2.0 | 7.0 | 0.00 | 0.00 | 0.00 | 32 | 1016.6 |
| 20260503222101 | 74 | 324 | 4.0 | 7.0 | 0.00 | 0.00 | 0.00 | 31 | 1016.6 |
| 20260503222006 | 74 | 356 | 3.0 | 7.0 | 0.00 | 0.00 | 0.00 | 31 | 1016.6 |
| 20260503221901 | 74 | 293 | 0.0 | 7.0 | 0.00 | 0.00 | 0.00 | 31 | 1016.6 |
| 20260503221801 | 74 | 293 | 3.0 | 7.0 | 0.00 | 0.00 | 0.00 | 32 | 1016.7 |
| 20260503221702 | 74 | 304 | 1.0 | 7.0 | 0.00 | 0.00 | 0.00 | 32 | 1016.6 |
| 20260503221602 | 74 | 310 | 3.0 | 7.0 | 0.00 | 0.00 | 0.00 | 32 | 1016.6 |
| 20260503221401 | 74 | 342 | 7.0 | 7.0 | 0.00 | 0.00 | 0.00 | 32 | 1016.7 |
| 20260503221301 | 74 | 358 | 3.0 | 7.0 | 0.00 | 0.00 | 0.00 | 32 | 1016.7 |
| 20260503221201 | 74 | 305 | 3.0 | 7.0 | 0.00 | 0.00 | 0.00 | 32 | 1016.7 |
| 20260503221102 | 74 | 307 | 2.0 | 7.0 | 0.00 | 0.00 | 0.00 | 32 | 1016.6 |
| 20260503221005 | 74 | 302 | 3.0 | 7.0 | 0.00 | 0.00 | 0.00 | 32 | 1016.6 |
| 20260503220901 | 74 | 297 | 5.0 | 7.0 | 0.00 | 0.00 | 0.00 | 32 | 1016.7 |
| 20260503220801 | 74 | 294 | 4.0 | 7.0 | 0.00 | 0.00 | 0.00 | 32 | 1016.6 |
| 20260503220701 | 74 | 271 | 6.0 | 7.0 | 0.00 | 0.00 | 0.00 | 32 | 1016.6 |
| 20260503220601 | 74 | 314 | 3.0 | 6.0 | 0.00 | 0.00 | 0.00 | 31 | 1016.7 |
| 20260503220505 | 74 | 342 | 3.0 | 6.0 | 0.00 | 0.00 | 0.00 | 31 | 1016.7 |
| 20260503220401 | 74 | 315 | 2.0 | 6.0 | 0.00 | 0.00 | 0.00 | 32 | 1016.6 |
| 20260503220301 | 74 | 221 | 0.0 | 6.0 | 0.00 | 0.00 | 0.00 | 33 | 1016.8 |
| 20260503220007 | 74 | 309 | 3.0 | 7.0 | 0.00 | 0.00 | 0.00 | 32 | 1016.8 |
| 20260503215802 | 74 | 300 | 4.0 | 7.0 | 0.00 | 0.00 | 0.00 | 32 | 1016.7 |
| 20260503215702 | 74 | 287 | 4.0 | 7.0 | 0.00 | 0.00 | 0.00 | 32 | 1016.8 |
| 20260503215603 | 74 | 285 | 5.0 | 7.0 | 0.00 | 0.00 | 0.00 | 31 | 1016.8 |
| 20260503215402 | 74 | 275 | 5.0 | 7.0 | 0.00 | 0.00 | 0.00 | 31 | 1016.8 |
| 20260503215304 | 74 | 255 | 6.0 | 6.0 | 0.00 | 0.00 | 0.00 | 33 | 1016.8 |
| 20260503215203 | 74 | 263 | 3.0 | 6.0 | 0.00 | 0.00 | 0.00 | 33 | 1016.8 |
| 20260503215104 | 74 | 281 | 3.0 | 6.0 | 0.00 | 0.00 | 0.00 | 33 | 1016.8 |
| 20260503215006 | 74 | 302 | 4.0 | 6.0 | 0.00 | 0.00 | 0.00 | 34 | 1016.9 |
| 20260503214902 | 74 | 267 | 4.0 | 6.0 | 0.00 | 0.00 | 0.00 | 35 | 1016.8 |
| 20260503214803 | 74 | 312 | 2.0 | 6.0 | 0.00 | 0.00 | 0.00 | 34 | 1016.8 |
| 20260503214701 | 74 | 287 | 4.0 | 6.0 | 0.00 | 0.00 | 0.00 | 33 | 1016.9 |
| 20260503214602 | 74 | 295 | 4.0 | 6.0 | 0.00 | 0.00 | 0.00 | 34 | 1016.8 |
| 20260503214506 | 74 | 267 | 3.0 | 6.0 | 0.00 | 0.00 | 0.00 | 33 | 1016.8 |
| 20260503214402 | 74 | 272 | 4.0 | 6.0 | 0.00 | 0.00 | 0.00 | 34 | 1016.8 |
| 20260503214303 | 74 | 284 | 4.0 | 6.0 | 0.00 | 0.00 | 0.00 | 32 | 1016.9 |
| 20260503214202 | 74 | 312 | 3.0 | 6.0 | 0.00 | 0.00 | 0.00 | 33 | 1016.9 |
| 20260503214102 | 74 | 338 | 3.0 | 6.0 | 0.00 | 0.00 | 0.00 | 33 | 1016.9 |
| 20260503214006 | 74 | 315 | 3.0 | 6.0 | 0.00 | 0.00 | 0.00 | 34 | 1016.9 |
| 20260503213903 | 74 | 265 | 4.0 | 6.0 | 0.00 | 0.00 | 0.00 | 33 | 1016.9 |
| 20260503213505 | 75 | 286 | 4.0 | 6.0 | 0.00 | 0.00 | 0.00 | 33 | 1016.9 |
| 20260503213402 | 74 | 295 | 0.0 | 6.0 | 0.00 | 0.00 | 0.00 | 32 | 1016.9 |
| 20260503213302 | 75 | 305 | 4.0 | 6.0 | 0.00 | 0.00 | 0.00 | 32 | 1016.9 |
| 20260503213202 | 75 | 297 | 3.0 | 6.0 | 0.00 | 0.00 | 0.00 | 33 | 1016.8 |
| 20260503213007 | 74 | 301 | 2.0 | 6.0 | 0.00 | 0.00 | 0.00 | 33 | 1016.9 |
| 20260503212902 | 74 | 288 | 3.0 | 6.0 | 0.00 | 0.00 | 0.00 | 34 | 1016.9 |
| 20260503212802 | 74 | 338 | 3.0 | 6.0 | 0.00 | 0.00 | 0.00 | 34 | 1016.9 |
| 20260503212703 | 74 | 290 | 3.0 | 6.0 | 0.00 | 0.00 | 0.00 | 34 | 1016.9 |
| 20260503212602 | 74 | 292 | 3.0 | 6.0 | 0.00 | 0.00 | 0.00 | 33 | 1016.9 |
| 20260503212506 | 74 | 301 | 4.0 | 6.0 | 0.00 | 0.00 | 0.00 | 34 | 1016.9 |
| 20260503212402 | 74 | 284 | 4.0 | 6.0 | 0.00 | 0.00 | 0.00 | 35 | 1016.9 |
| 20260503212102 | 74 | 349 | 5.0 | 7.0 | 0.00 | 0.00 | 0.00 | 33 | 1016.9 |
| 20260503212006 | 74 | 310 | 3.0 | 7.0 | 0.00 | 0.00 | 0.00 | 33 | 1016.9 |
| 20260503211903 | 74 | 338 | 2.0 | 7.0 | 0.00 | 0.00 | 0.00 | 34 | 1017.0 |
| 20260503211803 | 74 | 319 | 2.0 | 7.0 | 0.00 | 0.00 | 0.00 | 34 | 1016.9 |
| 20260503211703 | 74 | 283 | 3.0 | 7.0 | 0.00 | 0.00 | 0.00 | 34 | 1017.0 |
| 20260503211603 | 74 | 231 | 0.0 | 7.0 | 0.00 | 0.00 | 0.00 | 34 | 1017.0 |
| 20260503211506 | 74 | 269 | 5.0 | 7.0 | 0.00 | 0.00 | 0.00 | 34 | 1016.9 |
| 20260503211402 | 74 | 296 | 3.0 | 7.0 | 0.00 | 0.00 | 0.00 | 33 | 1017.0 |
| 20260503211302 | 74 | 303 | 2.0 | 7.0 | 0.00 | 0.00 | 0.00 | 34 | 1016.9 |
| 20260503211202 | 74 | 267 | 6.0 | 7.0 | 0.00 | 0.00 | 0.00 | 34 | 1017.0 |
| 20260503211005 | 74 | 282 | 4.0 | 7.0 | 0.00 | 0.00 | 0.00 | 34 | 1017.0 |
| 20260503210802 | 74 | 276 | 2.0 | 7.0 | 0.00 | 0.00 | 0.00 | 32 | 1017.0 |
| 20260503210702 | 74 | 266 | 5.0 | 7.0 | 0.00 | 0.00 | 0.00 | 33 | 1017.0 |
| 20260503210602 | 74 | 308 | 0.0 | 7.0 | 0.00 | 0.00 | 0.00 | 32 | 1017.0 |
| 20260503210505 | 74 | 5 | 3.0 | 7.0 | 0.00 | 0.00 | 0.00 | 33 | 1017.0 |
| 20260503210401 | 74 | 284 | 4.0 | 7.0 | 0.00 | 0.00 | 0.00 | 34 | 1017.0 |
| 20260503210202 | 75 | 293 | 2.0 | 7.0 | 0.00 | 0.00 | 0.00 | 34 | 1017.1 |
| 20260503210104 | 75 | 333 | 5.0 | 7.0 | 0.00 | 0.00 | 0.00 | 34 | 1017.1 |
| 20260503210007 | 74 | 277 | 5.0 | 7.0 | 0.00 | 0.00 | 0.00 | 34 | 1017.2 |
| 20260503205801 | 74 | 359 | 1.0 | 6.0 | 0.00 | 0.00 | 0.00 | 33 | 1017.1 |
| 20260503205701 | 74 | 283 | 6.0 | 6.0 | 0.00 | 0.00 | 0.00 | 34 | 1017.1 |
| 20260503205601 | 74 | 279 | 3.0 | 6.0 | 0.00 | 0.00 | 0.00 | 32 | 1017.0 |
| 20260503205505 | 74 | 271 | 3.0 | 6.0 | 0.00 | 0.00 | 0.00 | 31 | 1017.0 |
| 20260503205401 | 74 | 331 | 2.0 | 6.0 | 0.00 | 0.00 | 0.00 | 32 | 1017.1 |
| 20260503205303 | 74 | 336 | 3.0 | 6.0 | 0.00 | 0.00 | 0.00 | 33 | 1017.2 |
| 20260503205201 | 75 | 297 | 3.0 | 6.0 | 0.00 | 0.00 | 0.00 | 32 | 1017.3 |
| 20260503205101 | 75 | 295 | 4.0 | 6.0 | 0.00 | 0.00 | 0.00 | 32 | 1017.2 |
| 20260503204901 | 75 | 330 | 4.0 | 6.0 | 0.00 | 0.00 | 0.00 | 30 | 1017.3 |
| 20260503204800 | 75 | 1 | 3.0 | 5.0 | 0.00 | 0.00 | 0.00 | 30 | 1017.3 |
| 20260503204701 | 75 | 324 | 3.0 | 5.0 | 0.00 | 0.00 | 0.00 | 32 | 1017.3 |
| 20260503204602 | 75 | 298 | 4.0 | 5.0 | 0.00 | 0.00 | 0.00 | 31 | 1017.3 |
| 20260503204505 | 75 | 315 | 1.0 | 5.0 | 0.00 | 0.00 | 0.00 | 32 | 1017.3 |
| 20260503204402 | 75 | 265 | 1.0 | 5.0 | 0.00 | 0.00 | 0.00 | 30 | 1017.3 |
| 20260503204302 | 75 | 305 | 2.0 | 5.0 | 0.00 | 0.00 | 0.00 | 30 | 1017.3 |
| 20260503204201 | 75 | 6 | 4.0 | 5.0 | 0.00 | 0.00 | 0.00 | 33 | 1017.3 |
| 20260503204101 | 75 | 314 | 4.0 | 5.0 | 0.00 | 0.00 | 0.00 | 32 | 1017.2 |
| 20260503204006 | 75 | 319 | 1.0 | 6.0 | 0.00 | 0.00 | 0.00 | 33 | 1017.2 |
| 20260503203901 | 75 | 230 | 1.0 | 6.0 | 0.00 | 0.00 | 0.00 | 32 | 1017.3 |
| 20260503203800 | 75 | 290 | 3.0 | 6.0 | 0.00 | 0.00 | 0.00 | 33 | 1017.4 |
| 20260503203601 | 75 | 291 | 0.0 | 6.0 | 0.00 | 0.00 | 0.00 | 32 | 1017.6 |
| 20260503203504 | 75 | 278 | 3.0 | 7.0 | 0.00 | 0.00 | 0.00 | 32 | 1017.6 |
| 20260503203401 | 75 | 281 | 3.0 | 7.0 | 0.00 | 0.00 | 0.00 | 33 | 1017.7 |
| 20260503203301 | 75 | 291 | 5.0 | 7.0 | 0.00 | 0.00 | 0.00 | 33 | 1017.7 |
| 20260503203201 | 74 | 307 | 3.0 | 7.0 | 0.00 | 0.00 | 0.00 | 32 | 1017.7 |
| 20260503203006 | 75 | 289 | 3.0 | 7.0 | 0.00 | 0.00 | 0.00 | 32 | 1017.7 |
| 20260503202902 | 75 | 296 | 3.0 | 7.0 | 0.00 | 0.00 | 0.00 | 32 | 1017.7 |
| 20260503202701 | 75 | 294 | 4.0 | 7.0 | 0.00 | 0.00 | 0.00 | 33 | 1017.7 |
| 20260503202601 | 75 | 288 | 3.0 | 7.0 | 0.00 | 0.00 | 0.00 | 32 | 1017.7 |
| 20260503202504 | 75 | 300 | 1.0 | 6.0 | 0.00 | 0.00 | 0.00 | 33 | 1017.8 |
| 20260503202401 | 75 | 294 | 3.0 | 6.0 | 0.00 | 0.00 | 0.00 | 33 | 1017.7 |
| 20260503202300 | 75 | 295 | 3.0 | 6.0 | 0.00 | 0.00 | 0.00 | 33 | 1017.7 |
| 20260503202200 | 75 | 295 | 1.0 | 6.0 | 0.00 | 0.00 | 0.00 | 33 | 1017.6 |
| 20260503202101 | 75 | 317 | 2.0 | 6.0 | 0.00 | 0.00 | 0.00 | 33 | 1017.7 |
| 20260503202005 | 75 | 293 | 3.0 | 8.0 | 0.00 | 0.00 | 0.00 | 33 | 1017.7 |
| 20260503201801 | 75 | 349 | 2.0 | 8.0 | 0.00 | 0.00 | 0.00 | 31 | 1017.8 |
| 20260503201701 | 75 | 336 | 2.0 | 8.0 | 0.00 | 0.00 | 0.00 | 33 | 1017.8 |
| 20260503201603 | 75 | 302 | 2.0 | 8.0 | 0.00 | 0.00 | 0.00 | 31 | 1017.9 |
| 20260503201402 | 75 | 270 | 4.0 | 8.0 | 0.00 | 0.00 | 0.00 | 33 | 1017.8 |
| 20260503201301 | 75 | 281 | 3.0 | 8.0 | 0.00 | 0.00 | 0.00 | 33 | 1017.8 |
| 20260503201201 | 76 | 269 | 5.0 | 8.0 | 0.00 | 0.00 | 0.00 | 34 | 1017.8 |
| 20260503201101 | 75 | 264 | 7.0 | 7.0 | 0.00 | 0.00 | 0.00 | 33 | 1017.8 |
| 20260503201005 | 75 | 301 | 3.0 | 6.0 | 0.00 | 0.00 | 0.00 | 33 | 1017.8 |
| 20260503200902 | 75 | 242 | 3.0 | 6.0 | 0.00 | 0.00 | 0.00 | 34 | 1017.9 |
| 20260503200800 | 75 | 278 | 2.0 | 6.0 | 0.00 | 0.00 | 0.00 | 34 | 1017.9 |
| 20260503200702 | 75 | 294 | 5.0 | 7.0 | 0.00 | 0.00 | 0.00 | 34 | 1017.8 |
| 20260503200601 | 75 | 312 | 3.0 | 7.0 | 0.00 | 0.00 | 0.00 | 33 | 1017.9 |
| 20260503200505 | 74 | 315 | 3.0 | 7.0 | 0.00 | 0.00 | 0.00 | 33 | 1017.9 |
| 20260503200401 | 74 | 225 | 2.0 | 7.0 | 0.00 | 0.00 | 0.00 | 33 | 1017.9 |
| 20260503200301 | 74 | 304 | 2.0 | 7.0 | 0.00 | 0.00 | 0.00 | 34 | 1017.9 |
| 20260503200201 | 74 | 290 | 3.0 | 7.0 | 0.00 | 0.00 | 0.00 | 33 | 1018.0 |
| 20260503200101 | 74 | 279 | 5.0 | 7.0 | 0.00 | 0.00 | 0.00 | 34 | 1018.0 |
| 20260503200006 | 74 | 293 | 3.0 | 7.0 | 0.00 | 0.00 | 0.00 | 33 | 1018.0 |
| 20260503195801 | 74 | 250 | 4.0 | 7.0 | 0.00 | 0.00 | 0.00 | 33 | 1018.0 |
| 20260503195702 | 74 | 285 | 5.0 | 7.0 | 0.00 | 0.00 | 0.00 | 33 | 1018.1 |
| 20260503195602 | 74 | 288 | 3.0 | 7.0 | 0.00 | 0.00 | 0.00 | 32 | 1018.0 |
| 20260503195505 | 74 | 279 | 3.0 | 7.0 | 0.00 | 0.00 | 0.00 | 32 | 1018.0 |
| 20260503195401 | 74 | 252 | 6.0 | 7.0 | 0.00 | 0.00 | 0.00 | 32 | 1018.1 |
| 20260503195301 | 74 | 274 | 3.0 | 7.0 | 0.00 | 0.00 | 0.00 | 33 | 1018.1 |
| 20260503195101 | 74 | 289 | 4.0 | 8.0 | 0.00 | 0.00 | 0.00 | 31 | 1018.2 |
| 20260503195006 | 74 | 264 | 5.0 | 8.0 | 0.00 | 0.00 | 0.00 | 32 | 1018.2 |
| 20260503194901 | 74 | 327 | 4.0 | 8.0 | 0.00 | 0.00 | 0.00 | 34 | 1018.2 |
| 20260503194801 | 75 | 338 | 5.0 | 8.0 | 0.00 | 0.00 | 0.00 | 32 | 1018.3 |
| 20260503194700 | 75 | 303 | 5.0 | 8.0 | 0.00 | 0.00 | 0.00 | 33 | 1018.1 |
| 20260503194601 | 75 | 280 | 5.0 | 8.0 | 0.00 | 0.00 | 0.00 | 33 | 1018.2 |
| 20260503194505 | 74 | 293 | 3.0 | 8.0 | 0.00 | 0.00 | 0.00 | 32 | 1018.3 |
| 20260503194403 | 74 | 235 | 2.0 | 8.0 | 0.00 | 0.00 | 0.00 | 33 | 1018.2 |
| 20260503194302 | 74 | 289 | 3.0 | 8.0 | 0.00 | 0.00 | 0.00 | 30 | 1018.3 |
| 20260503194201 | 75 | 261 | 5.0 | 8.0 | 0.00 | 0.00 | 0.00 | 32 | 1018.3 |
| 20260503194101 | 74 | 290 | 4.0 | 7.0 | 0.00 | 0.00 | 0.00 | 34 | 1018.4 |
| 20260503194005 | 74 | 286 | 1.0 | 7.0 | 0.00 | 0.00 | 0.00 | 31 | 1018.4 |
| 20260503193901 | 74 | 300 | 4.0 | 7.0 | 0.00 | 0.00 | 0.00 | 32 | 1018.3 |
| 20260503193801 | 74 | 280 | 4.0 | 7.0 | 0.00 | 0.00 | 0.00 | 31 | 1018.4 |
| 20260503193701 | 74 | 286 | 3.0 | 7.0 | 0.00 | 0.00 | 0.00 | 30 | 1018.4 |
| 20260503193400 | 74 | 282 | 3.0 | 7.0 | 0.00 | 0.00 | 0.00 | 31 | 1018.4 |
| 20260503193302 | 74 | 288 | 4.0 | 7.0 | 0.00 | 0.00 | 0.00 | 31 | 1018.4 |
| 20260503193201 | 74 | 287 | 4.0 | 7.0 | 0.00 | 0.00 | 0.00 | 31 | 1018.5 |
| 20260503192901 | 74 | 261 | 3.0 | 7.0 | 0.00 | 0.00 | 0.00 | 30 | 1018.4 |
| 20260503192801 | 74 | 301 | 5.0 | 7.0 | 0.00 | 0.00 | 0.00 | 30 | 1018.4 |
| 20260503192701 | 74 | 275 | 6.0 | 9.0 | 0.00 | 0.00 | 0.00 | 31 | 1018.4 |
| 20260503192600 | 74 | 292 | 5.0 | 9.0 | 0.00 | 0.00 | 0.00 | 31 | 1018.4 |
| 20260503192505 | 74 | 323 | 3.0 | 9.0 | 0.00 | 0.00 | 0.00 | 30 | 1018.4 |
| 20260503192401 | 74 | 333 | 3.0 | 9.0 | 0.00 | 0.00 | 0.00 | 32 | 1018.4 |
| 20260503192302 | 74 | 265 | 5.0 | 9.0 | 0.00 | 0.00 | 0.00 | 32 | 1018.5 |
| 20260503192101 | 74 | 293 | 3.0 | 9.0 | 0.00 | 0.00 | 0.00 | 34 | 1018.6 |
| 20260503192005 | 74 | 277 | 3.0 | 9.0 | 0.00 | 0.00 | 0.00 | 36 | 1018.6 |
| 20260503191901 | 73 | 262 | 2.0 | 9.0 | 0.00 | 0.00 | 0.00 | 34 | 1018.4 |
| 20260503191801 | 73 | 258 | 8.0 | 9.0 | 0.00 | 0.00 | 0.00 | 36 | 1018.5 |
| 20260503191700 | 73 | 296 | 4.0 | 7.0 | 0.00 | 0.00 | 0.00 | 33 | 1018.5 |
| 20260503191601 | 73 | 297 | 5.0 | 7.0 | 0.00 | 0.00 | 0.00 | 34 | 1018.7 |
| 20260503191505 | 74 | 327 | 3.0 | 7.0 | 0.00 | 0.00 | 0.00 | 33 | 1018.7 |
| 20260503191403 | 74 | 255 | 5.0 | 7.0 | 0.00 | 0.00 | 0.00 | 33 | 1018.7 |
| 20260503191301 | 74 | 280 | 4.0 | 7.0 | 0.00 | 0.00 | 0.00 | 34 | 1018.7 |
| 20260503191201 | 74 | 311 | 4.0 | 7.0 | 0.00 | 0.00 | 0.00 | 33 | 1018.7 |
| 20260503191101 | 74 | 330 | 2.0 | 7.0 | 0.00 | 0.00 | 0.00 | 35 | 1018.7 |
| 20260503191005 | 74 | 273 | 4.0 | 7.0 | 0.00 | 0.00 | 0.00 | 33 | 1018.7 |
| 20260503190901 | 74 | 272 | 3.0 | 9.0 | 0.00 | 0.00 | 0.00 | 34 | 1018.7 |
| 20260503190801 | 74 | 314 | 3.0 | 9.0 | 0.00 | 0.00 | 0.00 | 33 | 1018.7 |
| 20260503190701 | 74 | 271 | 6.0 | 9.0 | 0.00 | 0.00 | 0.00 | 35 | 1018.7 |
| 20260503190302 | 73 | 333 | 3.0 | 9.0 | 0.00 | 0.00 | 0.00 | 33 | 1018.7 |
| 20260503190201 | 73 | 323 | 2.0 | 9.0 | 0.00 | 0.00 | 0.00 | 33 | 1018.8 |
| 20260503190006 | 73 | 267 | 7.0 | 8.0 | 0.00 | 0.00 | 0.00 | 35 | 1018.8 |
| 20260503185802 | 73 | 256 | 3.0 | 7.0 | 0.00 | 0.00 | 0.00 | 34 | 1018.7 |
| 20260503185702 | 73 | 307 | 3.0 | 7.0 | 0.00 | 0.00 | 0.00 | 33 | 1018.7 |
| 20260503185601 | 73 | 302 | 2.0 | 7.0 | 0.00 | 0.00 | 0.00 | 35 | 1018.7 |
| 20260503185505 | 73 | 314 | 2.0 | 7.0 | 0.00 | 0.00 | 0.00 | 35 | 1018.7 |
| 20260503185400 | 73 | 315 | 0.0 | 7.0 | 0.00 | 0.00 | 0.00 | 33 | 1018.7 |
| 20260503185301 | 73 | 331 | 3.0 | 7.0 | 0.00 | 0.00 | 0.00 | 33 | 1018.7 |
| 20260503185200 | 74 | 291 | 3.0 | 7.0 | 0.00 | 0.00 | 0.00 | 33 | 1018.8 |
| 20260503185101 | 74 | 319 | 2.0 | 7.0 | 0.00 | 0.00 | 0.00 | 35 | 1018.7 |
| 20260503184901 | 74 | 301 | 3.0 | 7.0 | 0.00 | 0.00 | 0.00 | 33 | 1018.9 |
| 20260503184802 | 75 | 288 | 4.0 | 7.0 | 0.00 | 0.00 | 0.00 | 32 | 1018.8 |
| 20260503184701 | 76 | 244 | 2.0 | 5.0 | 0.00 | 0.00 | 0.00 | 32 | 1018.9 |
| 20260503184601 | 76 | 189 | 0.0 | 5.0 | 0.00 | 0.00 | 0.00 | 35 | 1018.9 |
| 20260503184505 | 75 | 284 | 2.0 | 5.0 | 0.00 | 0.00 | 0.00 | 33 | 1018.9 |
| 20260503184402 | 75 | 347 | 2.0 | 5.0 | 0.00 | 0.00 | 0.00 | 33 | 1018.9 |
| 20260503184301 | 75 | 278 | 4.0 | 5.0 | 0.00 | 0.00 | 0.00 | 33 | 1018.8 |
| 20260503184202 | 75 | 306 | 2.0 | 5.0 | 0.00 | 0.00 | 0.00 | 34 | 1018.9 |
| 20260503184101 | 75 | 331 | 2.0 | 5.0 | 0.00 | 0.00 | 0.00 | 33 | 1018.9 |
| 20260503184005 | 76 | 312 | 2.0 | 5.0 | 0.00 | 0.00 | 0.00 | 34 | 1018.9 |
| 20260503183902 | 76 | 312 | 2.0 | 5.0 | 0.00 | 0.00 | 0.00 | 32 | 1018.9 |
| 20260503183801 | 76 | 319 | 3.0 | 5.0 | 0.00 | 0.00 | 0.00 | 32 | 1018.9 |
| 20260503183702 | 76 | 307 | 3.0 | 5.0 | 0.00 | 0.00 | 0.00 | 32 | 1018.9 |
| 20260503183505 | 76 | 322 | 2.0 | 6.0 | 0.00 | 0.00 | 0.00 | 36 | 1018.9 |
| 20260503183401 | 75 | 319 | 1.0 | 6.0 | 0.00 | 0.00 | 0.00 | 34 | 1018.9 |
| 20260503183302 | 76 | 324 | 3.0 | 6.0 | 0.00 | 0.00 | 0.00 | 32 | 1018.9 |
| 20260503183201 | 76 | 299 | 1.0 | 6.0 | 0.00 | 0.00 | 0.00 | 33 | 1018.9 |
| 20260503183007 | 75 | 350 | 3.0 | 6.0 | 0.00 | 0.00 | 0.00 | 34 | 1018.9 |
| 20260503182901 | 74 | 301 | 3.0 | 6.0 | 0.00 | 0.00 | 0.00 | 34 | 1018.9 |
| 20260503182801 | 75 | 313 | 0.0 | 6.0 | 0.00 | 0.00 | 0.00 | 35 | 1019.0 |
| 20260503182701 | 75 | 284 | 2.0 | 5.0 | 0.00 | 0.00 | 0.00 | 34 | 1019.0 |
| 20260503182601 | 75 | 5 | 5.0 | 5.0 | 0.00 | 0.00 | 0.00 | 36 | 1019.0 |
| 20260503182403 | 75 | 245 | 3.0 | 7.0 | 0.00 | 0.00 | 0.00 | 33 | 1019.0 |
| 20260503182300 | 75 | 313 | 0.0 | 7.0 | 0.00 | 0.00 | 0.00 | 34 | 1019.1 |
| 20260503182202 | 74 | 258 | 3.0 | 7.0 | 0.00 | 0.00 | 0.00 | 35 | 1019.1 |
| 20260503182103 | 74 | 301 | 1.0 | 7.0 | 0.00 | 0.00 | 0.00 | 35 | 1019.0 |
| 20260503181901 | 74 | 340 | 3.0 | 7.0 | 0.00 | 0.00 | 0.00 | 33 | 1019.1 |
| 20260503181803 | 74 | 288 | 4.0 | 7.0 | 0.00 | 0.00 | 0.00 | 35 | 1019.0 |
| 20260503181701 | 74 | 299 | 3.0 | 7.0 | 0.00 | 0.00 | 0.00 | 34 | 1019.1 |
| 20260503181601 | 74 | 253 | 0.0 | 8.0 | 0.00 | 0.00 | 0.00 | 33 | 1019.1 |
| 20260503181505 | 75 | 283 | 5.0 | 8.0 | 0.00 | 0.00 | 0.00 | 32 | 1019.1 |
| 20260503181401 | 74 | 155 | 0.0 | 8.0 | 0.00 | 0.00 | 0.00 | 32 | 1019.1 |
| 20260503181300 | 74 | 360 | 2.0 | 8.0 | 0.00 | 0.00 | 0.00 | 35 | 1019.1 |
| 20260503181202 | 74 | 276 | 1.0 | 8.0 | 0.00 | 0.00 | 0.00 | 35 | 1019.1 |
| 20260503181005 | 74 | 304 | 3.0 | 8.0 | 0.00 | 0.00 | 0.00 | 33 | 1019.1 |
| 20260503180601 | 74 | 345 | 3.0 | 6.0 | 0.00 | 0.00 | 0.00 | 34 | 1019.1 |
| 20260503180504 | 74 | 299 | 4.0 | 6.0 | 0.00 | 0.00 | 0.00 | 35 | 1019.1 |
| 20260503180401 | 74 | 293 | 4.0 | 6.0 | 0.00 | 0.00 | 0.00 | 34 | 1019.2 |
| 20260503180301 | 74 | 352 | 3.0 | 6.0 | 0.00 | 0.00 | 0.00 | 35 | 1019.2 |
| 20260503180201 | 74 | 316 | 3.0 | 6.0 | 0.00 | 0.00 | 0.00 | 34 | 1019.3 |
| 20260503175901 | 73 | 246 | 4.0 | 6.0 | 0.00 | 0.00 | 0.00 | 35 | 1019.2 |
| 20260503175801 | 73 | 286 | 3.0 | 6.0 | 0.00 | 0.00 | 0.00 | 34 | 1019.2 |
| 20260503175701 | 73 | 262 | 5.0 | 6.0 | 0.00 | 0.00 | 0.00 | 35 | 1019.2 |
| 20260503175601 | 73 | 292 | 5.0 | 6.0 | 0.00 | 0.00 | 0.00 | 34 | 1019.2 |
| 20260503175505 | 74 | 284 | 3.0 | 6.0 | 0.00 | 0.00 | 0.00 | 34 | 1019.2 |
| 20260503175402 | 74 | 319 | 4.0 | 6.0 | 0.00 | 0.00 | 0.00 | 31 | 1019.3 |
| 20260503175301 | 75 | 134 | 2.0 | 6.0 | 0.00 | 0.00 | 0.00 | 31 | 1019.3 |
| 20260503175201 | 75 | 99 | 1.0 | 7.0 | 0.00 | 0.00 | 0.00 | 33 | 1019.3 |
| 20260503175005 | 74 | 31 | 1.0 | 7.0 | 0.00 | 0.00 | 0.00 | 33 | 1019.4 |
| 20260503174901 | 73 | 12 | 1.0 | 7.0 | 0.00 | 0.00 | 0.00 | 32 | 1019.4 |
| 20260503174600 | 72 | 321 | 3.0 | 7.0 | 0.00 | 0.00 | 0.00 | 34 | 1019.4 |
| 20260503174505 | 72 | 340 | 3.0 | 7.0 | 0.00 | 0.00 | 0.00 | 32 | 1019.4 |
| 20260503174401 | 72 | 319 | 3.0 | 7.0 | 0.00 | 0.00 | 0.00 | 32 | 1019.5 |
| 20260503174302 | 72 | 350 | 3.0 | 7.0 | 0.00 | 0.00 | 0.00 | 35 | 1019.4 |
| 20260503174202 | 72 | 280 | 5.0 | 8.0 | 0.00 | 0.00 | 0.00 | 34 | 1019.5 |
| 20260503174007 | 72 | 309 | 5.0 | 8.0 | 0.00 | 0.00 | 0.00 | 34 | 1019.4 |
| 20260503173902 | 72 | 305 | 6.0 | 8.0 | 0.00 | 0.00 | 0.00 | 35 | 1019.5 |
| 20260503173802 | 72 | 293 | 4.0 | 8.0 | 0.00 | 0.00 | 0.00 | 36 | 1019.5 |
| 20260503173602 | 72 | 307 | 5.0 | 8.0 | 0.00 | 0.00 | 0.00 | 36 | 1019.4 |
| 20260503173504 | 71 | 285 | 3.0 | 8.0 | 0.00 | 0.00 | 0.00 | 35 | 1019.4 |
| 20260503173401 | 71 | 292 | 5.0 | 8.0 | 0.00 | 0.00 | 0.00 | 34 | 1019.4 |
| 20260503173302 | 71 | 305 | 4.0 | 8.0 | 0.00 | 0.00 | 0.00 | 33 | 1019.5 |
| 20260503173201 | 71 | 257 | 4.0 | 8.0 | 0.00 | 0.00 | 0.00 | 34 | 1019.5 |
| 20260503173101 | 72 | 293 | 6.0 | 8.0 | 0.00 | 0.00 | 0.00 | 33 | 1019.6 |
| 20260503173007 | 72 | 275 | 6.0 | 8.0 | 0.00 | 0.00 | 0.00 | 35 | 1019.6 |
| 20260503172902 | 72 | 287 | 4.0 | 8.0 | 0.00 | 0.00 | 0.00 | 37 | 1019.6 |
| 20260503172801 | 72 | 307 | 3.0 | 10.0 | 0.00 | 0.00 | 0.00 | 34 | 1019.7 |
| 20260503172700 | 72 | 304 | 5.0 | 10.0 | 0.00 | 0.00 | 0.00 | 35 | 1019.6 |
| 20260503172601 | 72 | 292 | 5.0 | 10.0 | 0.00 | 0.00 | 0.00 | 35 | 1019.7 |
| 20260503172505 | 72 | 307 | 4.0 | 10.0 | 0.00 | 0.00 | 0.00 | 37 | 1019.8 |
| 20260503172401 | 72 | 281 | 6.0 | 10.0 | 0.00 | 0.00 | 0.00 | 36 | 1019.7 |
| 20260503172302 | 71 | 328 | 3.0 | 10.0 | 0.00 | 0.00 | 0.00 | 34 | 1019.7 |
| 20260503172201 | 71 | 304 | 3.0 | 10.0 | 0.00 | 0.00 | 0.00 | 35 | 1019.7 |
| 20260503172101 | 72 | 300 | 5.0 | 10.0 | 0.00 | 0.00 | 0.00 | 36 | 1019.7 |
| 20260503172005 | 72 | 303 | 7.0 | 10.0 | 0.00 | 0.00 | 0.00 | 35 | 1019.7 |
| 20260503171901 | 71 | 274 | 5.0 | 7.0 | 0.00 | 0.00 | 0.00 | 36 | 1019.8 |
| 20260503171802 | 71 | 244 | 4.0 | 7.0 | 0.00 | 0.00 | 0.00 | 35 | 1019.8 |
| 20260503171701 | 71 | 303 | 2.0 | 7.0 | 0.00 | 0.00 | 0.00 | 35 | 1019.8 |
| 20260503171505 | 71 | 279 | 5.0 | 7.0 | 0.00 | 0.00 | 0.00 | 34 | 1019.9 |
| 20260503171401 | 71 | 329 | 5.0 | 7.0 | 0.00 | 0.00 | 0.00 | 35 | 1020.0 |
| 20260503171301 | 71 | 286 | 3.0 | 7.0 | 0.00 | 0.00 | 0.00 | 36 | 1019.9 |
| 20260503171101 | 72 | 329 | 3.0 | 6.0 | 0.00 | 0.00 | 0.00 | 36 | 1020.0 |
| 20260503170901 | 71 | 280 | 3.0 | 7.0 | 0.00 | 0.00 | 0.00 | 34 | 1020.1 |
| 20260503170802 | 71 | 328 | 2.0 | 7.0 | 0.00 | 0.00 | 0.00 | 35 | 1020.1 |
| 20260503170701 | 71 | 360 | 3.0 | 7.0 | 0.00 | 0.00 | 0.00 | 34 | 1020.1 |
| 20260503170601 | 71 | 338 | 0.0 | 7.0 | 0.00 | 0.00 | 0.00 | 36 | 1020.2 |
| 20260503170401 | 70 | 316 | 4.0 | 8.0 | 0.00 | 0.00 | 0.00 | 34 | 1020.3 |
| 20260503170302 | 71 | 276 | 5.0 | 8.0 | 0.00 | 0.00 | 0.00 | 36 | 1020.2 |
| 20260503170201 | 71 | 253 | 5.0 | 8.0 | 0.00 | 0.00 | 0.00 | 36 | 1020.3 |
| 20260503160201 | 70 | 260 | 1.0 | 6.0 | 0.00 | 0.00 | 0.00 | 36 | 1020.8 |
| 20260503151005 | 69 | 299 | 3.0 | 7.0 | 0.00 | 0.00 | 0.00 | 40 | 1021.0 |
| 20260503150901 | 69 | 279 | 6.0 | 6.0 | 0.00 | 0.00 | 0.00 | 40 | 1020.9 |
| 20260503150801 | 69 | 291 | 2.0 | 5.0 | 0.00 | 0.00 | 0.00 | 40 | 1021.0 |
| 20260503150701 | 68 | 202 | 2.0 | 5.0 | 0.00 | 0.00 | 0.00 | 42 | 1021.0 |
| 20260503150601 | 68 | 199 | 2.0 | 5.0 | 0.00 | 0.00 | 0.00 | 41 | 1021.0 |
| 20260503150505 | 68 | 45 | 3.0 | 6.0 | 0.00 | 0.00 | 0.00 | 41 | 1021.0 |
| 20260503150401 | 68 | 295 | 2.0 | 6.0 | 0.00 | 0.00 | 0.00 | 43 | 1021.0 |
| 20260503150301 | 68 | 300 | 5.0 | 6.0 | 0.00 | 0.00 | 0.00 | 42 | 1021.0 |
| 20260503150201 | 68 | 290 | 2.0 | 6.0 | 0.00 | 0.00 | 0.00 | 41 | 1020.9 |
| 20260503140201 | 63 | 307 | 3.0 | 5.0 | 0.00 | 0.02 | 0.00 | 52 | 1020.2 |
| 20260503131359 | 59 | 302 | 0.0 | 3.0 | 0.00 | 0.03 | 0.00 | 61 | 1020.2 |
| 20260503131300 | 59 | 326 | 1.0 | 3.0 | 0.00 | 0.03 | 0.00 | 63 | 1020.3 |
| 20260503131200 | 59 | 281 | 2.0 | 3.0 | 0.00 | 0.03 | 0.00 | 63 | 1020.3 |
| 20260503131100 | 59 | 286 | 0.0 | 4.0 | 0.00 | 0.03 | 0.00 | 64 | 1020.2 |
| 20260503131005 | 59 | 286 | 0.0 | 4.0 | 0.00 | 0.03 | 0.00 | 64 | 1020.2 |
| 20260503130902 | 58 | 176 | 2.0 | 4.0 | 0.00 | 0.03 | 0.00 | 64 | 1020.3 |
| 20260503130800 | 58 | 162 | 0.0 | 4.0 | 0.00 | 0.03 | 0.00 | 64 | 1020.3 |
| 20260503130700 | 58 | 184 | 2.0 | 4.0 | 0.00 | 0.03 | 0.00 | 65 | 1020.3 |
| 20260503130559 | 58 | 245 | 0.0 | 4.0 | 0.00 | 0.03 | 0.00 | 65 | 1020.3 |
| 20260503130504 | 58 | 243 | 2.0 | 4.0 | 0.00 | 0.03 | 0.00 | 64 | 1020.3 |
| 20260503130400 | 57 | 219 | 0.0 | 4.0 | 0.00 | 0.03 | 0.00 | 64 | 1020.2 |
| 20260503130259 | 57 | 297 | 0.0 | 4.0 | 0.00 | 0.03 | 0.00 | 65 | 1020.2 |
| 20260503130159 | 57 | 268 | 3.0 | 4.0 | 0.00 | 0.03 | 0.00 | 66 | 1020.2 |
| 20260503120200 | 49 | 194 | 0.0 | 2.0 | 0.00 | 0.08 | 0.00 | 85 | 1020.0 |
| 20260503110802 | 46 | 207 | 3.0 | 4.0 | 0.00 | 0.20 | 0.00 | 88 | 1019.1 |
| 20260503110702 | 46 | 194 | 2.0 | 4.0 | 0.00 | 0.20 | 0.00 | 88 | 1019.1 |
| 20260503110602 | 46 | 188 | 3.0 | 4.0 | 0.00 | 0.20 | 0.00 | 88 | 1019.1 |
| 20260503110504 | 46 | 187 | 4.0 | 4.0 | 0.00 | 0.20 | 0.00 | 88 | 1019.1 |
| 20260503110300 | 46 | 190 | 2.0 | 4.0 | 0.00 | 0.20 | 0.00 | 88 | 1019.1 |
| 20260503100200 | 46 | 181 | 3.0 | 4.0 | 0.00 | 0.39 | 0.00 | 87 | 1018.4 |
| 20260503090505 | 47 | 176 | 3.0 | 4.0 | 0.00 | 0.50 | 0.00 | 87 | 1018.3 |
| 20260503090401 | 47 | 183 | 2.0 | 4.0 | 0.00 | 0.50 | 0.00 | 87 | 1018.3 |
| 20260503090301 | 47 | 207 | 2.0 | 4.0 | 0.00 | 0.50 | 0.00 | 87 | 1018.3 |
| 20260503090200 | 47 | 203 | 2.0 | 4.0 | 0.00 | 0.50 | 0.00 | 87 | 1018.3 |
| 20260503081559 | 47 | 186 | 3.0 | 3.0 | 0.00 | 0.63 | 0.00 | 86 | 1018.2 |
| 20260503081504 | 47 | 198 | 2.0 | 3.0 | 0.00 | 0.63 | 0.00 | 86 | 1018.2 |
| 20260503081400 | 47 | 185 | 2.0 | 3.0 | 0.00 | 0.63 | 0.00 | 86 | 1018.1 |
| 20260503081259 | 47 | 166 | 1.0 | 3.0 | 0.00 | 0.63 | 0.00 | 86 | 1018.1 |
| 20260503081159 | 47 | 187 | 2.0 | 3.0 | 0.00 | 0.63 | 0.00 | 85 | 1018.1 |
| 20260503081100 | 47 | 150 | 0.0 | 3.0 | 0.00 | 0.63 | 0.00 | 85 | 1018.1 |
| 20260503081005 | 47 | 175 | 0.0 | 3.0 | 0.00 | 0.63 | 0.00 | 85 | 1018.1 |
| 20260503080800 | 47 | 154 | 0.0 | 3.0 | 0.00 | 0.63 | 0.00 | 85 | 1018.1 |
| 20260503080700 | 47 | 154 | 2.0 | 3.0 | 0.00 | 0.63 | 0.00 | 86 | 1018.1 |
| 20260503080559 | 47 | 164 | 3.0 | 3.0 | 0.00 | 0.63 | 0.00 | 86 | 1018.1 |
| 20260503080505 | 47 | 171 | 2.0 | 4.0 | 0.00 | 0.63 | 0.00 | 86 | 1018.1 |
| 20260503080359 | 47 | 201 | 1.0 | 4.0 | 0.00 | 0.63 | 0.00 | 86 | 1018.1 |
| 20260503080300 | 47 | 181 | 1.0 | 4.0 | 0.00 | 0.63 | 0.00 | 85 | 1018.0 |
| 20260503072800 | 48 | 178 | 2.0 | 3.0 | 0.00 | 0.95 | 0.00 | 84 | 1017.7 |
| 20260503072700 | 48 | 159 | 1.0 | 3.0 | 0.00 | 0.95 | 0.00 | 84 | 1017.7 |
| 20260503072559 | 48 | 167 | 3.0 | 3.0 | 0.00 | 0.95 | 0.00 | 84 | 1017.7 |
| 20260503072504 | 48 | 169 | 2.0 | 3.0 | 0.00 | 0.95 | 0.00 | 84 | 1017.7 |
| 20260503072400 | 48 | 166 | 1.0 | 3.0 | 0.00 | 0.95 | 0.00 | 84 | 1017.7 |
| 20260503072159 | 48 | 162 | 0.0 | 3.0 | 0.00 | 0.95 | 0.00 | 84 | 1017.6 |
| 20260503072100 | 48 | 176 | 2.0 | 3.0 | 0.00 | 0.95 | 0.00 | 84 | 1017.6 |
| 20260503072004 | 48 | 167 | 2.0 | 3.0 | 0.00 | 0.95 | 0.00 | 84 | 1017.6 |
| 20260503071659 | 49 | 224 | 0.0 | 1.0 | 0.00 | 0.95 | 0.00 | 84 | 1017.7 |
| 20260503071600 | 49 | 224 | 1.0 | 2.0 | 0.00 | 0.95 | 0.00 | 84 | 1017.7 |
| 20260503071502 | 49 | 216 | 0.0 | 2.0 | 0.00 | 0.95 | 0.00 | 84 | 1017.6 |
| 20260503071400 | 49 | 216 | 0.0 | 2.0 | 0.00 | 0.95 | 0.00 | 84 | 1017.6 |
| 20260503071201 | 49 | 229 | 0.0 | 2.0 | 0.00 | 0.95 | 0.00 | 84 | 1017.7 |
| 20260503071100 | 49 | 224 | 0.0 | 2.0 | 0.00 | 0.95 | 0.00 | 84 | 1017.6 |
| 20260503071005 | 49 | 239 | 0.0 | 3.0 | 0.00 | 0.95 | 0.00 | 84 | 1017.6 |
| 20260503070800 | 49 | 187 | 0.0 | 3.0 | 0.00 | 0.95 | 0.00 | 83 | 1017.7 |
| 20260503070659 | 49 | 209 | 0.0 | 3.0 | 0.00 | 0.95 | 0.00 | 83 | 1017.6 |
| 20260503070600 | 49 | 199 | 0.0 | 3.0 | 0.00 | 0.95 | 0.00 | 83 | 1017.6 |
| 20260503070358 | 49 | 202 | 0.0 | 3.0 | 0.00 | 0.95 | 0.00 | 83 | 1017.6 |
| 20260503070300 | 49 | 217 | 0.0 | 3.0 | 0.00 | 0.95 | 0.00 | 83 | 1017.6 |
| 20260503070200 | 49 | 204 | 1.0 | 3.0 | 0.00 | 0.95 | 0.00 | 83 | 1017.6 |
| 20260503060159 | 50 | 197 | 1.0 | 3.0 | 0.00 | 1.01 | 0.00 | 78 | 1017.7 |
| 20260503055103 | 51 | 221 | 0.0 | 3.0 | 0.00 | 1.19 | 0.00 | 76 | 1017.6 |
| 20260503055005 | 51 | 211 | 1.0 | 3.0 | 0.00 | 1.19 | 0.00 | 77 | 1017.6 |
| 20260503054902 | 51 | 229 | 0.0 | 3.0 | 0.00 | 1.19 | 0.00 | 77 | 1017.5 |
| 20260503054801 | 51 | 231 | 1.0 | 2.0 | 0.00 | 1.19 | 0.00 | 77 | 1017.6 |
| 20260503054505 | 51 | 227 | 1.0 | 2.0 | 0.00 | 1.19 | 0.00 | 77 | 1017.6 |
| 20260503054302 | 51 | 244 | 0.0 | 2.0 | 0.00 | 1.19 | 0.00 | 76 | 1017.6 |
| 20260503054201 | 51 | 236 | 0.0 | 2.0 | 0.00 | 1.19 | 0.00 | 76 | 1017.6 |
| 20260503054100 | 51 | 201 | 0.0 | 2.0 | 0.00 | 1.19 | 0.00 | 76 | 1017.6 |
| 20260503054006 | 51 | 201 | 0.0 | 2.0 | 0.00 | 1.19 | 0.00 | 76 | 1017.6 |
| 20260503053902 | 51 | 248 | 0.0 | 2.0 | 0.00 | 1.19 | 0.00 | 76 | 1017.6 |
| 20260503053802 | 51 | 201 | 0.0 | 2.0 | 0.00 | 1.19 | 0.00 | 76 | 1017.6 |
| 20260503053601 | 51 | 250 | 0.0 | 2.0 | 0.00 | 1.19 | 0.00 | 76 | 1017.6 |
| 20260503053401 | 52 | 224 | 1.0 | 2.0 | 0.00 | 1.19 | 0.00 | 77 | 1017.6 |
| 20260503053302 | 52 | 214 | 0.0 | 1.0 | 0.00 | 1.19 | 0.00 | 76 | 1017.5 |
| 20260503053201 | 52 | 255 | 0.0 | 1.0 | 0.00 | 1.19 | 0.00 | 76 | 1017.5 |
| 20260503053102 | 52 | 250 | 0.0 | 1.0 | 0.00 | 1.19 | 0.00 | 76 | 1017.5 |
| 20260503052902 | 52 | 250 | 0.0 | 1.0 | 0.00 | 1.19 | 0.00 | 76 | 1017.6 |
| 20260503052801 | 52 | 250 | 0.0 | 1.0 | 0.00 | 1.19 | 0.00 | 76 | 1017.6 |
| 20260503052506 | 52 | 250 | 0.0 | 2.0 | 0.00 | 1.19 | 0.00 | 76 | 1017.5 |
| 20260503052401 | 52 | 250 | 0.0 | 2.0 | 0.00 | 1.19 | 0.00 | 76 | 1017.6 |
| 20260503052305 | 52 | 250 | 0.0 | 2.0 | 0.00 | 1.19 | 0.00 | 76 | 1017.5 |
| 20260503052202 | 52 | 252 | 0.0 | 2.0 | 0.00 | 1.19 | 0.00 | 76 | 1017.6 |
| 20260503052101 | 52 | 240 | 0.0 | 2.0 | 0.00 | 1.19 | 0.00 | 76 | 1017.6 |
| 20260503051904 | 52 | 237 | 0.0 | 2.0 | 0.00 | 1.19 | 0.00 | 76 | 1017.5 |
| 20260503051802 | 52 | 250 | 0.0 | 2.0 | 0.00 | 1.19 | 0.00 | 75 | 1017.6 |
| 20260503051703 | 52 | 250 | 1.0 | 2.0 | 0.00 | 1.19 | 0.00 | 75 | 1017.6 |
| 20260503051402 | 52 | 248 | 0.0 | 2.0 | 0.00 | 1.19 | 0.00 | 75 | 1017.5 |
| 20260503051201 | 52 | 264 | 0.0 | 2.0 | 0.00 | 1.19 | 0.00 | 75 | 1017.6 |
| 20260503051102 | 52 | 239 | 0.0 | 2.0 | 0.00 | 1.19 | 0.00 | 74 | 1017.5 |
| 20260503051005 | 52 | 248 | 0.0 | 2.0 | 0.00 | 1.19 | 0.00 | 74 | 1017.5 |
| 20260503050902 | 52 | 262 | 0.0 | 2.0 | 0.00 | 1.19 | 0.00 | 74 | 1017.6 |
| 20260503050702 | 52 | 234 | 0.0 | 2.0 | 0.00 | 1.19 | 0.00 | 74 | 1017.5 |
| 20260503050602 | 52 | 250 | 1.0 | 2.0 | 0.00 | 1.19 | 0.00 | 73 | 1017.6 |
| 20260503050505 | 52 | 233 | 0.0 | 2.0 | 0.00 | 1.19 | 0.00 | 73 | 1017.6 |
| 20260503050301 | 52 | 218 | 0.0 | 2.0 | 0.00 | 1.19 | 0.00 | 72 | 1017.5 |
| 20260503050202 | 52 | 235 | 2.0 | 2.0 | 0.00 | 1.19 | 0.00 | 72 | 1017.4 |
| 20260503050101 | 53 | 236 | 1.0 | 2.0 | 0.00 | 1.19 | 0.00 | 72 | 1017.5 |
| 20260503050010 | 53 | 237 | 0.0 | 2.0 | 0.00 | 1.19 | 0.00 | 72 | 1017.4 |
| 20260503045904 | 53 | 214 | 0.0 | 2.0 | 0.00 | 1.55 | 1.19 | 71 | 1017.5 |
| 20260503045804 | 53 | 226 | 2.0 | 2.0 | 0.00 | 1.55 | 1.19 | 71 | 1017.4 |
| 20260503045703 | 53 | 231 | 0.0 | 2.0 | 0.00 | 1.55 | 1.19 | 72 | 1017.5 |
| 20260503045603 | 53 | 223 | 2.0 | 2.0 | 0.00 | 1.55 | 1.19 | 72 | 1017.5 |
| 20260503045506 | 53 | 240 | 2.0 | 2.0 | 0.00 | 1.55 | 1.19 | 71 | 1017.5 |
| 20260503045402 | 53 | 232 | 0.0 | 2.0 | 0.00 | 1.55 | 1.19 | 70 | 1017.4 |
| 20260503045305 | 53 | 208 | 0.0 | 3.0 | 0.00 | 1.55 | 1.19 | 70 | 1017.4 |
| 20260503045202 | 53 | 222 | 2.0 | 3.0 | 0.00 | 1.55 | 1.19 | 70 | 1017.4 |
| 20260503045103 | 53 | 183 | 0.0 | 3.0 | 0.00 | 1.55 | 1.19 | 70 | 1017.3 |
| 20260503045006 | 53 | 199 | 0.0 | 3.0 | 0.00 | 1.55 | 1.19 | 70 | 1017.3 |
| 20260503044903 | 53 | 199 | 0.0 | 3.0 | 0.00 | 1.55 | 1.19 | 70 | 1017.4 |
| 20260503044802 | 53 | 196 | 0.0 | 3.0 | 0.00 | 1.55 | 1.19 | 70 | 1017.2 |
| 20260503044604 | 53 | 207 | 0.0 | 3.0 | 0.00 | 1.55 | 1.19 | 69 | 1017.3 |
| 20260503044506 | 53 | 171 | 2.0 | 3.0 | 0.00 | 1.55 | 1.19 | 69 | 1017.2 |
| 20260503044302 | 53 | 205 | 0.0 | 2.0 | 0.00 | 1.55 | 1.19 | 69 | 1017.2 |
| 20260503044204 | 53 | 208 | 0.0 | 2.0 | 0.00 | 1.55 | 1.19 | 70 | 1017.2 |
| 20260503044104 | 54 | 210 | 0.0 | 2.0 | 0.00 | 1.55 | 1.19 | 70 | 1017.2 |
| 20260503043904 | 54 | 230 | 2.0 | 3.0 | 0.00 | 1.55 | 1.19 | 69 | 1017.2 |
| 20260503043803 | 54 | 212 | 0.0 | 3.0 | 0.00 | 1.55 | 1.19 | 69 | 1017.1 |
| 20260503043702 | 54 | 239 | 1.0 | 3.0 | 0.00 | 1.55 | 1.19 | 69 | 1017.0 |
| 20260503043604 | 54 | 217 | 0.0 | 3.0 | 0.00 | 1.55 | 1.19 | 69 | 1017.0 |
| 20260503043505 | 54 | 213 | 0.0 | 3.0 | 0.00 | 1.55 | 1.19 | 69 | 1017.0 |
| 20260503043402 | 54 | 205 | 2.0 | 3.0 | 0.00 | 1.55 | 1.19 | 68 | 1017.0 |
| 20260503043303 | 54 | 216 | 0.0 | 3.0 | 0.00 | 1.55 | 1.19 | 67 | 1017.0 |
| 20260503043203 | 54 | 224 | 1.0 | 3.0 | 0.00 | 1.55 | 1.19 | 67 | 1016.9 |
| 20260503043103 | 54 | 210 | 0.0 | 3.0 | 0.00 | 1.55 | 1.19 | 67 | 1016.9 |
| 20260503043006 | 54 | 219 | 1.0 | 3.0 | 0.00 | 1.55 | 1.19 | 66 | 1016.9 |
| 20260503042805 | 54 | 231 | 1.0 | 3.0 | 0.00 | 1.55 | 1.19 | 66 | 1017.0 |
| 20260503042703 | 54 | 212 | 2.0 | 3.0 | 0.00 | 1.55 | 1.19 | 66 | 1017.0 |
| 20260503042602 | 55 | 218 | 0.0 | 2.0 | 0.00 | 1.55 | 1.19 | 66 | 1017.0 |
| 20260503042505 | 55 | 235 | 1.0 | 2.0 | 0.00 | 1.55 | 1.19 | 65 | 1017.0 |
| 20260503042404 | 55 | 240 | 0.0 | 2.0 | 0.00 | 1.55 | 1.19 | 65 | 1017.0 |
| 20260503042304 | 55 | 245 | 0.0 | 2.0 | 0.00 | 1.55 | 1.19 | 65 | 1016.9 |
| 20260503042204 | 55 | 236 | 0.0 | 2.0 | 0.00 | 1.55 | 1.19 | 65 | 1016.9 |
| 20260503042103 | 55 | 239 | 0.0 | 2.0 | 0.00 | 1.55 | 1.19 | 65 | 1016.9 |
| 20260503042005 | 55 | 255 | 1.0 | 2.0 | 0.00 | 1.55 | 1.19 | 65 | 1016.9 |
| 20260503041904 | 55 | 257 | 1.0 | 2.0 | 0.00 | 1.55 | 1.19 | 65 | 1017.0 |
| 20260503041602 | 55 | 265 | 1.0 | 3.0 | 0.00 | 1.55 | 1.19 | 65 | 1016.8 |
| 20260503041505 | 55 | 237 | 0.0 | 3.0 | 0.00 | 1.55 | 1.19 | 64 | 1016.9 |
| 20260503041402 | 55 | 255 | 1.0 | 3.0 | 0.00 | 1.55 | 1.19 | 64 | 1016.9 |
| 20260503041303 | 55 | 233 | 0.0 | 3.0 | 0.00 | 1.55 | 1.19 | 64 | 1016.9 |
| 20260503041203 | 55 | 262 | 2.0 | 3.0 | 0.00 | 1.55 | 1.19 | 64 | 1016.9 |
| 20260503041104 | 55 | 240 | 1.0 | 3.0 | 0.00 | 1.55 | 1.19 | 64 | 1016.9 |
| 20260503040804 | 56 | 255 | 0.0 | 3.0 | 0.00 | 1.55 | 1.19 | 64 | 1016.9 |
| 20260503040702 | 56 | 253 | 2.0 | 2.0 | 0.00 | 1.55 | 1.19 | 63 | 1016.9 |
| 20260503040604 | 56 | 264 | 0.0 | 3.0 | 0.00 | 1.55 | 1.19 | 64 | 1016.9 |
| 20260503040505 | 56 | 262 | 1.0 | 3.0 | 0.00 | 1.55 | 1.19 | 64 | 1016.9 |
| 20260503040404 | 56 | 250 | 0.0 | 3.0 | 0.00 | 1.55 | 1.19 | 64 | 1017.0 |
| 20260503040303 | 56 | 250 | 1.0 | 3.0 | 0.00 | 1.55 | 1.19 | 63 | 1016.8 |
| 20260503040204 | 56 | 245 | 0.0 | 3.0 | 0.00 | 1.55 | 1.19 | 64 | 1016.8 |
| 20260503040006 | 56 | 264 | 1.0 | 3.0 | 0.00 | 1.55 | 1.19 | 63 | 1016.8 |
| 20260503035902 | 56 | 257 | 2.0 | 3.0 | 0.00 | 1.74 | 1.19 | 64 | 1016.8 |
| 20260503035803 | 56 | 253 | 0.0 | 3.0 | 0.00 | 1.74 | 1.19 | 64 | 1016.8 |
| 20260503035702 | 56 | 257 | 0.0 | 3.0 | 0.00 | 1.74 | 1.19 | 64 | 1016.8 |
| 20260503035601 | 56 | 255 | 1.0 | 3.0 | 0.00 | 1.74 | 1.19 | 64 | 1016.8 |
| 20260503035402 | 56 | 267 | 1.0 | 3.0 | 0.00 | 1.74 | 1.19 | 64 | 1016.8 |
| 20260503035304 | 56 | 246 | 2.0 | 3.0 | 0.00 | 1.74 | 1.19 | 64 | 1016.8 |
| 20260503035201 | 56 | 240 | 0.0 | 3.0 | 0.00 | 1.74 | 1.19 | 64 | 1016.8 |
| 20260503035004 | 56 | 264 | 1.0 | 3.0 | 0.00 | 1.74 | 1.19 | 64 | 1016.8 |
| 20260503034902 | 56 | 255 | 2.0 | 3.0 | 0.00 | 1.74 | 1.19 | 63 | 1016.8 |
| 20260503034801 | 56 | 255 | 0.0 | 3.0 | 0.00 | 1.74 | 1.19 | 64 | 1016.7 |
| 20260503034602 | 56 | 259 | 2.0 | 3.0 | 0.00 | 1.74 | 1.19 | 64 | 1016.7 |
| 20260503034505 | 56 | 241 | 3.0 | 3.0 | 0.00 | 1.74 | 1.19 | 63 | 1016.8 |
| 20260503034401 | 56 | 227 | 3.0 | 3.0 | 0.00 | 1.74 | 1.19 | 63 | 1016.8 |
| 20260503034301 | 56 | 259 | 2.0 | 4.0 | 0.00 | 1.74 | 1.19 | 64 | 1016.9 |
| 20260503034202 | 56 | 244 | 3.0 | 4.0 | 0.00 | 1.74 | 1.19 | 64 | 1016.7 |
| 20260503034101 | 56 | 255 | 2.0 | 4.0 | 0.00 | 1.74 | 1.19 | 66 | 1016.7 |
| 20260503033903 | 56 | 237 | 2.0 | 4.0 | 0.00 | 1.74 | 1.19 | 65 | 1016.7 |
| 20260503033801 | 56 | 248 | 2.0 | 4.0 | 0.00 | 1.74 | 1.19 | 65 | 1016.6 |
| 20260503033701 | 56 | 267 | 2.0 | 4.0 | 0.00 | 1.74 | 1.19 | 64 | 1016.6 |
| 20260503033601 | 56 | 251 | 3.0 | 4.0 | 0.00 | 1.74 | 1.19 | 65 | 1016.6 |
| 20260503033505 | 56 | 262 | 3.0 | 4.0 | 0.00 | 1.74 | 1.19 | 65 | 1016.6 |
| 20260503033401 | 56 | 243 | 4.0 | 4.0 | 0.00 | 1.74 | 1.19 | 67 | 1016.7 |
| 20260503033302 | 56 | 249 | 3.0 | 3.0 | 0.00 | 1.74 | 1.19 | 66 | 1016.6 |
| 20260503033201 | 56 | 264 | 2.0 | 3.0 | 0.00 | 1.74 | 1.19 | 66 | 1016.7 |
| 20260503033102 | 56 | 252 | 3.0 | 3.0 | 0.00 | 1.74 | 1.19 | 65 | 1016.6 |
| 20260503033007 | 57 | 250 | 2.0 | 4.0 | 0.00 | 1.74 | 1.19 | 65 | 1016.6 |
| 20260503032903 | 57 | 262 | 3.0 | 4.0 | 0.00 | 1.74 | 1.19 | 65 | 1016.6 |
| 20260503032802 | 57 | 259 | 2.0 | 4.0 | 0.00 | 1.74 | 1.19 | 65 | 1016.5 |
| 20260503032701 | 57 | 265 | 2.0 | 4.0 | 0.00 | 1.74 | 1.19 | 65 | 1016.6 |
| 20260503032504 | 57 | 264 | 2.0 | 4.0 | 0.00 | 1.74 | 1.19 | 65 | 1016.5 |
| 20260503032402 | 57 | 257 | 2.0 | 4.0 | 0.00 | 1.74 | 1.19 | 66 | 1016.5 |
| 20260503032304 | 57 | 238 | 2.0 | 4.0 | 0.00 | 1.74 | 1.19 | 65 | 1016.5 |
| 20260503032202 | 57 | 267 | 3.0 | 4.0 | 0.00 | 1.74 | 1.19 | 65 | 1016.5 |
| 20260503032101 | 57 | 250 | 2.0 | 4.0 | 0.00 | 1.74 | 1.19 | 65 | 1016.5 |
| 20260503032006 | 57 | 259 | 3.0 | 3.0 | 0.00 | 1.74 | 1.19 | 65 | 1016.5 |
| 20260503031902 | 57 | 252 | 2.0 | 3.0 | 0.00 | 1.74 | 1.19 | 65 | 1016.5 |
| 20260503031801 | 57 | 269 | 2.0 | 3.0 | 0.00 | 1.74 | 1.19 | 65 | 1016.4 |
| 20260503031701 | 57 | 248 | 3.0 | 3.0 | 0.00 | 1.74 | 1.19 | 65 | 1016.5 |
| 20260503031602 | 57 | 252 | 2.0 | 3.0 | 0.00 | 1.74 | 1.19 | 65 | 1016.5 |
| 20260503031505 | 57 | 248 | 1.0 | 3.0 | 0.00 | 1.74 | 1.19 | 65 | 1016.4 |
| 20260503031402 | 57 | 264 | 2.0 | 3.0 | 0.00 | 1.74 | 1.19 | 64 | 1016.5 |
| 20260503031301 | 57 | 270 | 2.0 | 3.0 | 0.00 | 1.74 | 1.19 | 64 | 1016.6 |
| 20260503031202 | 57 | 266 | 2.0 | 4.0 | 0.00 | 1.74 | 1.19 | 64 | 1016.5 |
| 20260503031102 | 57 | 257 | 2.0 | 4.0 | 0.00 | 1.74 | 1.19 | 63 | 1016.5 |
| 20260503030901 | 57 | 271 | 1.0 | 4.0 | 0.00 | 1.74 | 1.19 | 64 | 1016.4 |
| 20260503030802 | 57 | 266 | 2.0 | 4.0 | 0.00 | 1.74 | 1.19 | 63 | 1016.5 |
| 20260503030700 | 58 | 255 | 2.0 | 4.0 | 0.00 | 1.74 | 1.19 | 64 | 1016.4 |
| 20260503030601 | 58 | 264 | 3.0 | 4.0 | 0.00 | 1.74 | 1.19 | 63 | 1016.4 |
| 20260503030504 | 58 | 269 | 3.0 | 4.0 | 0.00 | 1.74 | 1.19 | 63 | 1016.5 |
| 20260503030402 | 58 | 259 | 3.0 | 4.0 | 0.00 | 1.74 | 1.19 | 63 | 1016.4 |
| 20260503030302 | 58 | 258 | 3.0 | 4.0 | 0.00 | 1.74 | 1.19 | 63 | 1016.4 |
| 20260503025902 | 58 | 246 | 3.0 | 4.0 | 0.00 | 1.85 | 1.19 | 63 | 1016.3 |
| 20260503025804 | 58 | 249 | 3.0 | 4.0 | 0.00 | 1.85 | 1.19 | 62 | 1016.3 |
| 20260503025703 | 58 | 253 | 1.0 | 4.0 | 0.00 | 1.85 | 1.19 | 62 | 1016.4 |
| 20260503025602 | 58 | 244 | 1.0 | 4.0 | 0.00 | 1.85 | 1.19 | 62 | 1016.4 |
| 20260503025506 | 58 | 252 | 2.0 | 4.0 | 0.00 | 1.85 | 1.19 | 62 | 1016.4 |
| 20260503025402 | 58 | 238 | 3.0 | 4.0 | 0.00 | 1.85 | 1.19 | 62 | 1016.4 |
| 20260503025203 | 58 | 248 | 3.0 | 3.0 | 0.00 | 1.85 | 1.19 | 62 | 1016.3 |
| 20260503025104 | 58 | 265 | 2.0 | 4.0 | 0.00 | 1.85 | 1.19 | 62 | 1016.3 |
| 20260503025006 | 58 | 244 | 2.0 | 4.0 | 0.00 | 1.85 | 1.19 | 60 | 1016.3 |
| 20260503024903 | 58 | 264 | 1.0 | 4.0 | 0.00 | 1.85 | 1.19 | 61 | 1016.3 |
| 20260503024804 | 58 | 248 | 2.0 | 4.0 | 0.00 | 1.85 | 1.19 | 62 | 1016.3 |
| 20260503024603 | 59 | 255 | 3.0 | 4.0 | 0.00 | 1.85 | 1.19 | 61 | 1016.3 |
| 20260503024505 | 59 | 253 | 3.0 | 4.0 | 0.00 | 1.85 | 1.19 | 60 | 1016.3 |
| 20260503024403 | 59 | 253 | 3.0 | 4.0 | 0.00 | 1.85 | 1.19 | 60 | 1016.2 |
| 20260503024303 | 59 | 248 | 3.0 | 4.0 | 0.00 | 1.85 | 1.19 | 61 | 1016.3 |
| 20260503024103 | 59 | 244 | 3.0 | 4.0 | 0.00 | 1.85 | 1.19 | 60 | 1016.2 |
| 20260503024005 | 59 | 248 | 2.0 | 4.0 | 0.00 | 1.85 | 1.19 | 60 | 1016.2 |
| 20260503023903 | 59 | 259 | 2.0 | 4.0 | 0.00 | 1.85 | 1.19 | 60 | 1016.2 |
| 20260503023803 | 59 | 262 | 3.0 | 4.0 | 0.00 | 1.85 | 1.19 | 60 | 1016.2 |
| 20260503023505 | 59 | 250 | 3.0 | 4.0 | 0.00 | 1.85 | 1.19 | 60 | 1016.2 |
| 20260503023403 | 59 | 255 | 3.0 | 4.0 | 0.00 | 1.85 | 1.19 | 60 | 1016.1 |
| 20260503023303 | 59 | 232 | 3.0 | 4.0 | 0.00 | 1.85 | 1.19 | 60 | 1016.2 |
| 20260503023202 | 59 | 264 | 3.0 | 4.0 | 0.00 | 1.85 | 1.19 | 60 | 1016.1 |
| 20260503023103 | 59 | 249 | 2.0 | 4.0 | 0.00 | 1.85 | 1.19 | 60 | 1016.1 |
| 20260503023007 | 59 | 255 | 3.0 | 4.0 | 0.00 | 1.85 | 1.19 | 58 | 1016.1 |
| 20260503022903 | 60 | 262 | 3.0 | 4.0 | 0.00 | 1.85 | 1.19 | 59 | 1016.0 |
| 20260503022803 | 60 | 263 | 3.0 | 4.0 | 0.00 | 1.85 | 1.19 | 58 | 1016.1 |
| 20260503022702 | 60 | 246 | 3.0 | 4.0 | 0.00 | 1.85 | 1.19 | 59 | 1016.0 |
| 20260503022604 | 60 | 249 | 3.0 | 4.0 | 0.00 | 1.85 | 1.19 | 60 | 1016.0 |
| 20260503022506 | 60 | 255 | 3.0 | 4.0 | 0.00 | 1.85 | 1.19 | 58 | 1015.9 |
| 20260503022403 | 60 | 244 | 3.0 | 4.0 | 0.00 | 1.85 | 1.19 | 58 | 1016.0 |
| 20260503022203 | 60 | 248 | 3.0 | 4.0 | 0.00 | 1.85 | 1.19 | 58 | 1015.9 |
| 20260503022006 | 60 | 239 | 3.0 | 4.0 | 0.00 | 1.85 | 1.19 | 58 | 1015.9 |
| 20260503021904 | 60 | 232 | 2.0 | 4.0 | 0.00 | 1.85 | 1.19 | 58 | 1015.9 |
| 20260503021803 | 60 | 262 | 3.0 | 4.0 | 0.00 | 1.85 | 1.19 | 58 | 1015.9 |
| 20260503021703 | 60 | 248 | 3.0 | 4.0 | 0.00 | 1.85 | 1.19 | 57 | 1015.8 |
| 20260503021603 | 60 | 248 | 3.0 | 4.0 | 0.00 | 1.85 | 1.19 | 58 | 1015.8 |
| 20260503021506 | 60 | 271 | 3.0 | 4.0 | 0.00 | 1.85 | 1.19 | 57 | 1015.8 |
| 20260503021402 | 60 | 256 | 3.0 | 4.0 | 0.00 | 1.85 | 1.19 | 58 | 1015.8 |
| 20260503021303 | 60 | 249 | 3.0 | 4.0 | 0.00 | 1.85 | 1.19 | 57 | 1015.8 |
| 20260503021006 | 60 | 252 | 3.0 | 4.0 | 0.00 | 1.85 | 1.19 | 58 | 1015.9 |
| 20260503020703 | 61 | 255 | 3.0 | 4.0 | 0.00 | 1.85 | 1.19 | 58 | 1015.8 |
| 20260503020602 | 61 | 257 | 2.0 | 5.0 | 0.00 | 1.85 | 1.19 | 58 | 1015.8 |
| 20260503020505 | 61 | 259 | 3.0 | 5.0 | 0.00 | 1.85 | 1.19 | 57 | 1015.8 |
| 20260503020403 | 61 | 246 | 4.0 | 5.0 | 0.00 | 1.85 | 1.19 | 57 | 1015.7 |
| 20260503020302 | 61 | 270 | 2.0 | 5.0 | 0.00 | 1.85 | 1.19 | 58 | 1015.7 |
| 20260503020202 | 61 | 250 | 3.0 | 5.0 | 0.00 | 1.85 | 1.19 | 57 | 1015.6 |
| 20260503020006 | 61 | 250 | 3.0 | 5.0 | 0.00 | 1.85 | 1.19 | 56 | 1015.7 |
| 20260503015901 | 61 | 262 | 3.0 | 5.0 | 0.00 | 2.11 | 1.19 | 58 | 1015.6 |
| 20260503015802 | 61 | 244 | 3.0 | 5.0 | 0.00 | 2.11 | 1.19 | 57 | 1015.6 |
| 20260503015702 | 61 | 258 | 3.0 | 5.0 | 0.00 | 2.11 | 1.19 | 57 | 1015.5 |
| 20260503015505 | 61 | 267 | 3.0 | 4.0 | 0.00 | 2.11 | 1.19 | 59 | 1015.5 |
| 20260503015402 | 61 | 256 | 2.0 | 4.0 | 0.00 | 2.11 | 1.19 | 58 | 1015.5 |
| 20260503015301 | 61 | 245 | 3.0 | 4.0 | 0.00 | 2.11 | 1.19 | 57 | 1015.4 |
| 20260503015202 | 61 | 252 | 3.0 | 4.0 | 0.00 | 2.11 | 1.19 | 57 | 1015.4 |
| 20260503015101 | 61 | 250 | 3.0 | 4.0 | 0.00 | 2.11 | 1.19 | 58 | 1015.4 |
| 20260503015006 | 61 | 265 | 3.0 | 4.0 | 0.00 | 2.11 | 1.19 | 56 | 1015.3 |
| 20260503014902 | 61 | 245 | 3.0 | 4.0 | 0.00 | 2.11 | 1.19 | 57 | 1015.4 |
| 20260503014801 | 61 | 258 | 2.0 | 4.0 | 0.00 | 2.11 | 1.19 | 56 | 1015.3 |
| 20260503014701 | 61 | 262 | 3.0 | 4.0 | 0.00 | 2.11 | 1.19 | 56 | 1015.3 |
| 20260503014602 | 61 | 242 | 3.0 | 4.0 | 0.00 | 2.11 | 1.19 | 57 | 1015.4 |
| 20260503014505 | 61 | 259 | 4.0 | 4.0 | 0.00 | 2.11 | 1.19 | 57 | 1015.4 |
| 20260503014402 | 61 | 255 | 3.0 | 4.0 | 0.00 | 2.11 | 1.19 | 57 | 1015.3 |
| 20260503014301 | 61 | 251 | 3.0 | 4.0 | 0.00 | 2.11 | 1.19 | 57 | 1015.3 |
| 20260503014202 | 61 | 248 | 3.0 | 4.0 | 0.00 | 2.11 | 1.19 | 56 | 1015.3 |
| 20260503014101 | 61 | 263 | 3.0 | 4.0 | 0.00 | 2.11 | 1.19 | 57 | 1015.3 |
| 20260503014005 | 61 | 281 | 4.0 | 4.0 | 0.00 | 2.11 | 1.19 | 57 | 1015.3 |
| 20260503013902 | 61 | 249 | 3.0 | 4.0 | 0.00 | 2.11 | 1.19 | 57 | 1015.2 |
| 20260503013802 | 61 | 269 | 4.0 | 4.0 | 0.00 | 2.11 | 1.19 | 58 | 1015.2 |
| 20260503013701 | 61 | 267 | 4.0 | 4.0 | 0.00 | 2.11 | 1.19 | 56 | 1015.1 |
| 20260503013602 | 61 | 263 | 3.0 | 4.0 | 0.00 | 2.11 | 1.19 | 58 | 1015.2 |
| 20260503013402 | 62 | 270 | 4.0 | 4.0 | 0.00 | 2.11 | 1.19 | 56 | 1015.1 |
| 20260503013201 | 62 | 262 | 3.0 | 4.0 | 0.00 | 2.11 | 1.19 | 57 | 1015.0 |
| 20260503013102 | 62 | 264 | 4.0 | 4.0 | 0.00 | 2.11 | 1.19 | 56 | 1015.1 |
| 20260503012902 | 62 | 256 | 3.0 | 4.0 | 0.00 | 2.11 | 1.19 | 57 | 1015.0 |
| 20260503012803 | 62 | 274 | 4.0 | 4.0 | 0.00 | 2.11 | 1.19 | 57 | 1015.0 |
| 20260503012701 | 62 | 264 | 3.0 | 4.0 | 0.00 | 2.11 | 1.19 | 56 | 1015.0 |
| 20260503012602 | 62 | 269 | 3.0 | 4.0 | 0.00 | 2.11 | 1.19 | 56 | 1015.0 |
| 20260503012404 | 62 | 251 | 3.0 | 4.0 | 0.00 | 2.11 | 1.19 | 56 | 1015.0 |
| 20260503012301 | 62 | 269 | 3.0 | 4.0 | 0.00 | 2.11 | 1.19 | 56 | 1014.9 |
| 20260503012202 | 62 | 250 | 2.0 | 4.0 | 0.00 | 2.11 | 1.19 | 56 | 1014.9 |
| 20260503012102 | 62 | 262 | 3.0 | 4.0 | 0.00 | 2.11 | 1.19 | 56 | 1014.9 |
| 20260503012006 | 62 | 262 | 3.0 | 4.0 | 0.00 | 2.11 | 1.19 | 56 | 1014.8 |
| 20260503011701 | 62 | 252 | 2.0 | 5.0 | 0.00 | 2.11 | 1.19 | 54 | 1014.8 |
| 20260503011601 | 63 | 231 | 3.0 | 5.0 | 0.00 | 2.11 | 1.19 | 55 | 1014.8 |
| 20260503011505 | 63 | 264 | 3.0 | 5.0 | 0.00 | 2.11 | 1.19 | 54 | 1014.8 |
| 20260503011401 | 63 | 260 | 3.0 | 5.0 | 0.00 | 2.11 | 1.19 | 54 | 1014.8 |
| 20260503011302 | 63 | 264 | 3.0 | 5.0 | 0.00 | 2.11 | 1.19 | 55 | 1014.8 |
| 20260503011101 | 63 | 265 | 4.0 | 5.0 | 0.00 | 2.11 | 1.19 | 54 | 1014.7 |
| 20260503010901 | 63 | 274 | 3.0 | 4.0 | 0.00 | 2.11 | 1.19 | 54 | 1014.7 |
| 20260503010802 | 63 | 252 | 4.0 | 4.0 | 0.00 | 2.11 | 1.19 | 54 | 1014.7 |
| 20260503010701 | 63 | 255 | 3.0 | 4.0 | 0.00 | 2.11 | 1.19 | 55 | 1014.7 |
| 20260503010505 | 63 | 259 | 3.0 | 4.0 | 0.00 | 2.11 | 1.19 | 55 | 1014.7 |
| 20260503010402 | 63 | 257 | 3.0 | 4.0 | 0.00 | 2.11 | 1.19 | 54 | 1014.6 |
| 20260503010301 | 63 | 262 | 3.0 | 4.0 | 0.00 | 2.11 | 1.19 | 54 | 1014.5 |
| 20260503010202 | 63 | 263 | 3.0 | 4.0 | 0.00 | 2.11 | 1.19 | 55 | 1014.5 |
| 20260503010006 | 63 | 259 | 3.0 | 4.0 | 0.00 | 2.22 | 1.19 | 54 | 1014.4 |
| 20260503005902 | 63 | 241 | 3.0 | 4.0 | 0.00 | 2.22 | 1.19 | 53 | 1014.4 |
| 20260503005803 | 63 | 266 | 3.0 | 4.0 | 0.00 | 2.22 | 1.19 | 53 | 1014.4 |
| 20260503005703 | 64 | 270 | 2.0 | 4.0 | 0.00 | 2.22 | 1.19 | 53 | 1014.4 |
| 20260503005603 | 64 | 272 | 4.0 | 4.0 | 0.00 | 2.22 | 1.19 | 53 | 1014.4 |
| 20260503005507 | 64 | 237 | 4.0 | 4.0 | 0.00 | 2.22 | 1.19 | 53 | 1014.4 |
| 20260503005403 | 64 | 264 | 3.0 | 4.0 | 0.00 | 2.22 | 1.19 | 53 | 1014.3 |
| 20260503005304 | 64 | 238 | 3.0 | 4.0 | 0.00 | 2.22 | 1.19 | 53 | 1014.3 |
| 20260503005204 | 64 | 266 | 3.0 | 4.0 | 0.00 | 2.22 | 1.19 | 52 | 1014.3 |
| 20260503004902 | 64 | 257 | 3.0 | 4.0 | 0.00 | 2.22 | 1.19 | 53 | 1014.2 |
| 20260503004802 | 64 | 264 | 3.0 | 4.0 | 0.00 | 2.22 | 1.19 | 53 | 1014.2 |
| 20260503004702 | 64 | 257 | 3.0 | 4.0 | 0.00 | 2.22 | 1.19 | 52 | 1014.2 |
| 20260503004603 | 64 | 253 | 3.0 | 4.0 | 0.00 | 2.22 | 1.19 | 52 | 1014.1 |
| 20260503004506 | 64 | 252 | 3.0 | 4.0 | 0.00 | 2.22 | 1.19 | 51 | 1014.1 |
| 20260503004403 | 64 | 242 | 2.0 | 4.0 | 0.00 | 2.22 | 1.19 | 51 | 1014.1 |
| 20260503004204 | 64 | 275 | 3.0 | 4.0 | 0.00 | 2.22 | 1.19 | 51 | 1014.0 |
| 20260503004102 | 64 | 242 | 3.0 | 4.0 | 0.00 | 2.22 | 1.19 | 52 | 1014.0 |
| 20260503004006 | 64 | 267 | 3.0 | 4.0 | 0.00 | 2.22 | 1.19 | 51 | 1014.0 |
| 20260503003902 | 64 | 360 | 3.0 | 5.0 | 0.00 | 2.22 | 1.19 | 51 | 1013.9 |
| 20260503003803 | 65 | 247 | 2.0 | 5.0 | 0.00 | 2.22 | 1.19 | 51 | 1013.9 |
| 20260503003702 | 65 | 255 | 2.0 | 5.0 | 0.00 | 2.22 | 1.19 | 52 | 1014.0 |
| 20260503003602 | 65 | 253 | 4.0 | 5.0 | 0.00 | 2.22 | 1.19 | 51 | 1013.8 |
| 20260503003505 | 65 | 270 | 3.0 | 5.0 | 0.00 | 2.22 | 1.19 | 51 | 1013.8 |
| 20260503003403 | 65 | 245 | 3.0 | 5.0 | 0.00 | 2.22 | 1.19 | 50 | 1013.8 |
| 20260503003303 | 65 | 270 | 3.0 | 5.0 | 0.00 | 2.22 | 1.19 | 49 | 1013.8 |
| 20260503003006 | 65 | 275 | 4.0 | 5.0 | 0.00 | 2.22 | 1.19 | 50 | 1013.7 |
| 20260503002903 | 65 | 281 | 4.0 | 5.0 | 0.00 | 2.22 | 1.19 | 50 | 1013.6 |
| 20260503002803 | 65 | 237 | 3.0 | 5.0 | 0.00 | 2.22 | 1.19 | 51 | 1013.6 |
| 20260503002703 | 65 | 250 | 2.0 | 5.0 | 0.00 | 2.22 | 1.19 | 49 | 1013.6 |
| 20260503002603 | 65 | 270 | 2.0 | 5.0 | 0.00 | 2.22 | 1.19 | 49 | 1013.6 |
| 20260503002506 | 65 | 248 | 4.0 | 6.0 | 0.00 | 2.22 | 1.19 | 49 | 1013.6 |
| 20260503002404 | 66 | 251 | 4.0 | 6.0 | 0.00 | 2.22 | 1.19 | 50 | 1013.5 |
| 20260503002305 | 66 | 279 | 4.0 | 6.0 | 0.00 | 2.22 | 1.19 | 49 | 1013.5 |
| 20260503002202 | 66 | 255 | 3.0 | 6.0 | 0.00 | 2.22 | 1.19 | 49 | 1013.5 |
| 20260503002103 | 66 | 283 | 3.0 | 6.0 | 0.00 | 2.22 | 1.19 | 49 | 1013.5 |
| 20260503002006 | 66 | 228 | 2.0 | 6.0 | 0.00 | 2.22 | 1.19 | 49 | 1013.5 |
| 20260503001903 | 66 | 242 | 4.0 | 6.0 | 0.00 | 2.22 | 1.19 | 49 | 1013.4 |
| 20260503001803 | 66 | 268 | 4.0 | 6.0 | 0.00 | 2.22 | 1.19 | 48 | 1013.4 |
| 20260503001602 | 66 | 260 | 4.0 | 5.0 | 0.00 | 2.22 | 1.19 | 49 | 1013.3 |
| 20260503001506 | 66 | 263 | 3.0 | 5.0 | 0.00 | 2.22 | 1.19 | 49 | 1013.3 |
| 20260503001402 | 66 | 277 | 4.0 | 5.0 | 0.00 | 2.22 | 1.19 | 48 | 1013.3 |
| 20260503001302 | 66 | 264 | 3.0 | 5.0 | 0.00 | 2.22 | 1.19 | 48 | 1013.4 |
| 20260503001203 | 66 | 249 | 3.0 | 5.0 | 0.00 | 2.22 | 1.19 | 48 | 1013.4 |
| 20260503001102 | 66 | 238 | 3.0 | 6.0 | 0.00 | 2.22 | 1.19 | 48 | 1013.3 |
| 20260503001006 | 66 | 262 | 3.0 | 6.0 | 0.00 | 2.22 | 1.19 | 47 | 1013.3 |
| 20260503000903 | 67 | 291 | 5.0 | 6.0 | 0.00 | 2.22 | 1.19 | 48 | 1013.2 |
| 20260503000802 | 67 | 251 | 3.0 | 6.0 | 0.00 | 2.22 | 1.19 | 47 | 1013.3 |
| 20260503000702 | 67 | 274 | 4.0 | 6.0 | 0.00 | 2.22 | 1.19 | 47 | 1013.2 |
| 20260503000603 | 67 | 258 | 3.0 | 6.0 | 0.00 | 2.22 | 1.19 | 47 | 1013.2 |
| 20260503000505 | 67 | 267 | 4.0 | 6.0 | 0.00 | 2.22 | 1.19 | 47 | 1013.2 |
| 20260503000403 | 67 | 270 | 4.0 | 6.0 | 0.00 | 2.22 | 1.19 | 47 | 1013.2 |
| 20260503000303 | 67 | 281 | 4.0 | 6.0 | 0.00 | 2.22 | 1.19 | 48 | 1013.2 |
| 20260503000204 | 67 | 270 | 5.0 | 5.0 | 0.00 | 2.22 | 1.19 | 47 | 1013.2 |
| 20260503000103 | 67 | 259 | 3.0 | 5.0 | 0.00 | 2.22 | 1.19 | 47 | 1013.2 |
| 20260503000006 | 67 | 274 | 3.0 | 5.0 | 0.00 | 2.22 | 1.19 | 47 | 1013.0 |
| 20260502235801 | 67 | 281 | 4.0 | 6.0 | 0.00 | 2.23 | 1.19 | 47 | 1013.0 |
| 20260502235701 | 67 | 269 | 4.0 | 6.0 | 0.00 | 2.23 | 1.19 | 47 | 1013.1 |
| 20260502235601 | 67 | 281 | 4.0 | 6.0 | 0.00 | 2.23 | 1.19 | 47 | 1013.1 |
| 20260502235506 | 67 | 250 | 3.0 | 6.0 | 0.00 | 2.23 | 1.19 | 47 | 1013.1 |
| 20260502235402 | 67 | 259 | 2.0 | 6.0 | 0.00 | 2.23 | 1.19 | 48 | 1013.0 |
| 20260502235304 | 67 | 260 | 3.0 | 6.0 | 0.00 | 2.23 | 1.19 | 47 | 1013.0 |
| 20260502235201 | 67 | 285 | 3.0 | 6.0 | 0.00 | 2.23 | 1.19 | 47 | 1013.0 |
| 20260502235101 | 68 | 267 | 2.0 | 6.0 | 0.00 | 2.23 | 1.19 | 46 | 1013.0 |
| 20260502235005 | 68 | 245 | 3.0 | 5.0 | 0.00 | 2.23 | 1.19 | 47 | 1013.0 |
| 20260502234902 | 68 | 359 | 1.0 | 5.0 | 0.00 | 2.23 | 1.19 | 46 | 1012.8 |
| 20260502234802 | 68 | 275 | 0.0 | 5.0 | 0.00 | 2.23 | 1.19 | 46 | 1012.9 |
| 20260502234701 | 68 | 303 | 4.0 | 5.0 | 0.00 | 2.23 | 1.19 | 47 | 1012.8 |
| 20260502234602 | 68 | 281 | 5.0 | 5.0 | 0.00 | 2.23 | 1.19 | 48 | 1012.9 |
| 20260502234505 | 68 | 257 | 3.0 | 5.0 | 0.00 | 2.23 | 1.19 | 48 | 1012.7 |
| 20260502234402 | 68 | 300 | 3.0 | 5.0 | 0.00 | 2.23 | 1.19 | 47 | 1012.9 |
| 20260502234301 | 68 | 323 | 0.0 | 5.0 | 0.00 | 2.23 | 1.19 | 48 | 1012.8 |
| 20260502234202 | 68 | 219 | 0.0 | 5.0 | 0.00 | 2.23 | 1.19 | 49 | 1012.8 |
| 20260502234102 | 68 | 263 | 1.0 | 5.0 | 0.00 | 2.23 | 1.19 | 49 | 1012.7 |
| 20260502234005 | 68 | 319 | 5.0 | 5.0 | 0.00 | 2.23 | 1.19 | 50 | 1012.7 |
| 20260502233902 | 68 | 285 | 2.0 | 5.0 | 0.00 | 2.23 | 1.19 | 51 | 1012.7 |
| 20260502233801 | 68 | 271 | 3.0 | 5.0 | 0.00 | 2.23 | 1.19 | 51 | 1012.7 |
| 20260502233701 | 68 | 302 | 2.0 | 5.0 | 0.00 | 2.23 | 1.19 | 50 | 1012.6 |
| 20260502233301 | 68 | 284 | 2.0 | 5.0 | 0.00 | 2.23 | 1.19 | 53 | 1012.4 |
| 20260502233202 | 68 | 270 | 0.0 | 6.0 | 0.00 | 2.23 | 1.19 | 54 | 1012.5 |
| 20260502233006 | 69 | 259 | 3.0 | 6.0 | 0.00 | 2.23 | 1.19 | 53 | 1012.5 |
| 20260502232902 | 69 | 311 | 1.0 | 6.0 | 0.00 | 2.23 | 1.19 | 53 | 1012.4 |
| 20260502232801 | 69 | 264 | 2.0 | 6.0 | 0.00 | 2.23 | 1.19 | 53 | 1012.4 |
| 20260502232602 | 69 | 305 | 0.0 | 7.0 | 0.00 | 2.23 | 1.19 | 53 | 1012.4 |
| 20260502232505 | 69 | 295 | 3.0 | 7.0 | 0.00 | 2.23 | 1.19 | 52 | 1012.4 |
| 20260502232402 | 69 | 307 | 0.0 | 8.0 | 0.00 | 2.23 | 1.19 | 53 | 1012.4 |
| 20260502232301 | 69 | 281 | 2.0 | 8.0 | 0.00 | 2.23 | 1.19 | 53 | 1012.4 |
| 20260502232102 | 69 | 264 | 2.0 | 8.0 | 0.00 | 2.23 | 1.19 | 52 | 1012.4 |
| 20260502232006 | 69 | 309 | 0.0 | 8.0 | 0.00 | 2.23 | 1.19 | 51 | 1012.4 |
| 20260502231802 | 69 | 300 | 0.0 | 8.0 | 0.00 | 2.23 | 1.19 | 51 | 1012.3 |
| 20260502231701 | 69 | 25 | 3.0 | 8.0 | 0.00 | 2.23 | 1.19 | 51 | 1012.4 |
| 20260502231602 | 69 | 307 | 4.0 | 8.0 | 0.00 | 2.23 | 1.19 | 51 | 1012.4 |
| 20260502231505 | 69 | 295 | 5.0 | 5.0 | 0.00 | 2.23 | 1.19 | 51 | 1012.4 |
| 20260502231401 | 69 | 284 | 0.0 | 5.0 | 0.00 | 2.23 | 1.19 | 52 | 1012.3 |
| 20260502231302 | 69 | 281 | 4.0 | 5.0 | 0.00 | 2.23 | 1.19 | 52 | 1012.4 |
| 20260502231202 | 69 | 273 | 3.0 | 5.0 | 0.00 | 2.23 | 1.19 | 52 | 1012.4 |
| 20260502231102 | 69 | 342 | 1.0 | 6.0 | 0.00 | 2.23 | 1.19 | 52 | 1012.4 |
| 20260502231006 | 69 | 309 | 2.0 | 6.0 | 0.00 | 2.23 | 1.19 | 53 | 1012.3 |
| 20260502230901 | 69 | 307 | 2.0 | 6.0 | 0.00 | 2.23 | 1.19 | 52 | 1012.4 |
| 20260502230701 | 69 | 281 | 4.0 | 6.0 | 0.00 | 2.23 | 1.19 | 52 | 1012.4 |
| 20260502230601 | 69 | 242 | 3.0 | 6.0 | 0.00 | 2.23 | 1.19 | 53 | 1012.4 |
| 20260502230504 | 69 | 307 | 3.0 | 6.0 | 0.00 | 2.23 | 1.19 | 52 | 1012.4 |
| 20260502230401 | 69 | 314 | 3.0 | 6.0 | 0.00 | 2.23 | 1.19 | 52 | 1012.3 |
| 20260502230201 | 69 | 335 | 4.0 | 6.0 | 0.00 | 2.23 | 1.19 | 52 | 1012.3 |